TimeEDT,TemperatureF,Dew PointF,Humidity,Sea Level PressureIn,VisibilityMPH,Wind Direction,Wind SpeedMPH,Gust SpeedMPH,PrecipitationIn,Events,Conditions,WindDirDegrees,DateUTC
12:21 AM,44.6,42.8,93,29.75,10.0,Calm,Calm,-,N/A,,Overcast,0,2011-10-27 04:21:00
12:32 AM,44.6,42.8,93,29.75,10.0,ENE,3.5,-,N/A,,Overcast,60,2011-10-27 04:32:00
12:54 AM,44.6,42.8,93,29.76,10.0,Calm,Calm,-,N/A,,Overcast,0,2011-10-27 04:54:00
1:34 AM,44.6,42.8,93,29.74,10.0,ENE,3.5,-,N/A,,Overcast,60,2011-10-27 05:34:00
1:54 AM,44.6,42.8,93,29.73,10.0,ENE,3.5,-,N/A,,Overcast,70,2011-10-27 05:54:00
2:54 AM,44.1,42.1,93,29.73,10.0,ENE,4.6,-,N/A,,Overcast,60,2011-10-27 06:54:00
3:11 AM,44.6,42.8,93,29.71,10.0,ENE,4.6,-,N/A,,Overcast,60,2011-10-27 07:11:00
3:19 AM,44.6,42.8,93,29.71,10.0,Calm,Calm,-,N/A,,Overcast,0,2011-10-27 07:19:00
3:34 AM,44.6,42.8,93,29.70,9.0,NE,3.5,-,N/A,,Overcast,50,2011-10-27 07:34:00
3:54 AM,42.8,42.8,100,29.71,8.0,NNE,5.8,-,N/A,,Overcast,30,2011-10-27 07:54:00
4:20 AM,42.8,42.8,100,29.72,5.0,North,5.8,-,N/A,,Overcast,10,2011-10-27 08:20:00
4:29 AM,42.8,42.8,100,29.71,2.5,NNE,4.6,-,0.00,Rain,Light Rain,30,2011-10-27 08:29:00
4:37 AM,42.8,42.8,100,29.71,2.5,NNE,5.8,-,0.01,Rain,Light Rain,20,2011-10-27 08:37:00
4:46 AM,42.8,42.8,100,29.71,3.0,NE,6.9,-,0.01,Rain,Light Rain,40,2011-10-27 08:46:00
4:54 AM,43.0,42.1,97,29.73,2.5,NNE,6.9,-,0.01,Rain,Light Rain,30,2011-10-27 08:54:00
5:04 AM,42.8,42.8,100,29.71,3.0,NNE,6.9,-,0.00,Rain,Light Rain,30,2011-10-27 09:04:00
5:54 AM,41.0,39.0,93,29.75,3.0,NNE,11.5,18.4,0.01,Rain,Light Rain,20,2011-10-27 09:54:00
6:33 AM,39.2,39.2,100,29.73,3.0,NNE,11.5,18.4,0.04,Rain,Rain,20,2011-10-27 10:33:00
6:54 AM,39.9,39.0,97,29.75,3.0,NE,6.9,-,0.09,Rain,Rain,50,2011-10-27 10:54:00
7:31 AM,39.2,39.2,100,29.73,7.0,NE,10.4,-,0.05,Rain,Light Rain,40,2011-10-27 11:31:00
7:54 AM,39.0,39.0,100,29.75,5.0,NE,9.2,16.1,0.06,Rain,Light Rain,40,2011-10-27 11:54:00
8:45 AM,39.2,39.2,100,29.73,2.5,NE,6.9,16.1,0.06,Rain,Rain,40,2011-10-27 12:45:00
8:54 AM,39.0,39.0,100,29.75,3.0,NE,10.4,-,0.08,Rain,Light Rain,40,2011-10-27 12:54:00
9:54 AM,39.0,37.9,96,29.75,3.0,NNE,9.2,18.4,0.03,Rain,Light Rain,30,2011-10-27 13:54:00
10:01 AM,39.2,37.4,93,29.73,2.0,NE,9.2,18.4,0.01,Rain,Light Rain,40,2011-10-27 14:01:00
10:22 AM,39.2,37.4,93,29.73,3.0,NNE,10.4,-,0.01,Rain,Light Rain,30,2011-10-27 14:22:00
10:45 AM,37.4,37.4,100,29.73,1.5,NNE,9.2,19.6,0.01,Rain,Light Rain,30,2011-10-27 14:45:00
10:54 AM,37.9,37.0,97,29.75,1.2,NE,11.5,18.4,0.01,Rain,Light Rain,40,2011-10-27 14:54:00
11:54 AM,37.9,37.0,97,29.73,3.0,NE,10.4,18.4,0.03,Rain,Light Rain,50,2011-10-27 15:54:00
12:16 PM,37.4,37.4,100,29.69,2.5,NE,8.1,-,0.01,Rain,Light Rain,50,2011-10-27 16:16:00
12:27 PM,37.4,37.4,100,29.68,4.0,NE,10.4,18.4,0.01,Rain,Light Rain,40,2011-10-27 16:27:00
12:54 PM,37.9,37.0,97,29.70,5.0,NE,12.7,20.7,0.02,Rain,Light Rain,40,2011-10-27 16:54:00
1:18 PM,37.4,37.4,100,29.67,2.0,NE,12.7,20.7,0.01,Rain,Light Rain,50,2011-10-27 17:18:00
1:26 PM,37.4,37.4,100,29.67,2.0,NE,11.5,20.7,0.02,Rain,Rain,40,2011-10-27 17:26:00
1:54 PM,37.0,36.0,96,29.71,3.0,NNE,11.5,18.4,0.05,Rain,Light Rain,20,2011-10-27 17:54:00
2:15 PM,35.6,35.6,100,29.66,4.0,NE,10.4,18.4,0.04,Rain,Light Rain,40,2011-10-27 18:15:00
2:54 PM,36.0,35.1,97,29.72,4.0,NNE,10.4,-,0.07,Rain,Rain,20,2011-10-27 18:54:00
3:27 PM,35.6,33.8,93,29.69,5.0,NE,8.1,17.3,0.07,Snow,Light Snow,40,2011-10-27 19:27:00
3:54 PM,34.0,33.1,96,29.69,1.5,NE,11.5,16.1,0.10,Snow,Light Snow,40,2011-10-27 19:54:00
4:54 PM,34.0,34.0,100,29.67,1.2,NE,8.1,-,0.02,Rain,Light Rain,40,2011-10-27 20:54:00
5:54 PM,33.1,32.0,96,29.68,1.2,NNE,8.1,-,0.07,Snow,Light Snow,20,2011-10-27 21:54:00
6:32 PM,33.8,32.0,93,29.70,1.0,North,13.8,-,0.06,Snow,Light Snow,360,2011-10-27 22:32:00
6:51 PM,33.8,32.0,93,29.70,0.8,North,12.7,-,0.09,Snow,Light Snow,10,2011-10-27 22:51:00
6:54 PM,33.1,32.0,96,29.73,0.8,NNE,10.4,-,0.09,Snow,Light Snow,20,2011-10-27 22:54:00
7:01 PM,33.8,32.0,93,29.71,0.8,North,12.7,18.4,0.01,Snow,Light Snow,10,2011-10-27 23:01:00
7:43 PM,33.8,32.0,93,29.72,1.2,NNE,12.7,17.3,0.04,Snow,Light Snow,20,2011-10-27 23:43:00
7:54 PM,33.1,32.0,96,29.77,1.2,North,9.2,-,0.05,Snow,Light Snow,360,2011-10-27 23:54:00
8:20 PM,33.8,32.0,93,29.74,0.8,North,11.5,-,0.03,Snow,Light Snow,360,2011-10-28 00:20:00
8:38 PM,33.8,32.0,93,29.75,1.2,North,9.2,17.3,0.04,Snow,Light Snow,360,2011-10-28 00:38:00
8:54 PM,33.8,32.0,93,29.76,2.0,North,10.4,-,N/A,Snow,Light Snow,360,2011-10-28 00:54:00
9:05 PM,33.8,32.0,93,29.77,3.0,North,11.5,-,0.00,Snow,Light Snow,360,2011-10-28 01:05:00
9:25 PM,33.8,32.0,93,29.78,2.5,NNW,10.4,-,0.01,Snow,Light Snow,340,2011-10-28 01:25:00
9:37 PM,33.8,32.0,93,29.79,2.0,North,11.5,-,0.02,Snow,Light Snow,350,2011-10-28 01:37:00
9:54 PM,33.1,32.0,96,29.82,3.0,North,12.7,-,0.02,Snow,Light Snow,350,2011-10-28 01:54:00
10:01 PM,33.8,32.0,93,29.80,1.8,NNW,10.4,-,0.00,Snow,Light Snow,340,2011-10-28 02:01:00
10:17 PM,33.8,32.0,93,29.81,2.5,NNW,12.7,-,0.01,Snow,Light Snow,340,2011-10-28 02:17:00
10:31 PM,33.8,32.0,93,29.82,3.0,NNW,10.4,-,0.01,Snow,Light Snow,340,2011-10-28 02:31:00
10:54 PM,34.0,30.9,89,29.86,5.0,NNW,13.8,19.6,0.01,Snow,Light Snow,340,2011-10-28 02:54:00
11:01 PM,33.8,32.0,93,29.84,2.5,NNW,12.7,-,0.00,Snow,Light Snow,330,2011-10-28 03:01:00
11:19 PM,33.8,30.2,87,29.84,2.5,NNW,13.8,21.9,0.00,Snow,Light Snow,330,2011-10-28 03:19:00
11:42 PM,33.8,30.2,87,29.85,5.0,NNW,11.5,21.9,0.00,Snow,Light Snow,340,2011-10-28 03:42:00
11:54 PM,33.1,30.9,92,29.88,9.0,North,9.2,19.6,0.00,,Overcast,350,2011-10-28 03:54:00